Weather History for Millville, NJ

Change the Weather History Date:

Tuesday, January 8, 2013

  Actual Average Record
Temperature  
Mean Temperature 36 °F -  
Max Temperature 51 °F 38 °F 66 °F (1998)
Min Temperature 21 °F 24 °F 4 °F (1981)
Degree Days  
Heating Degree Days 29    
Moisture  
Dew Point 27 °F    
Average Humidity 72    
Maximum Humidity 92    
Minimum Humidity 46    
Precipitation  
Precipitation 0.00 in - - ()
Sea Level Pressure  
Sea Level Pressure 30.41 in    
Wind  
Wind Speed 2 mph (WSW)    
Max Wind Speed 12 mph    
Max Gust Speed 21 mph    
Visibility 9 miles    
Events      
Averages and records for this station are not official NWS values.
T = Trace of Precipitation, MM = Missing Value Source: NWS Daily Summary

Daily Weather History Graph

Daily Weather History Graph

Search for Another Location

Airport:

Trip Planner

Search our weather history database for the weather conditions in past years. The results will help you decide how hot, cold, wet, or windy it might be!

Date:

Astronomy

Jan. 08, 2013 Rise Set
Actual Time 7:20 AM EST 4:54 PM EST
Civil Twilight 6:50 AM EST 5:24 PM EST
Nautical Twilight 6:17 AM EST 5:57 PM EST
Astronomical Twilight 5:44 AM EST 6:29 PM EST
Moon 3:50 AM EST (1/8) 1:54 PM EST (1/8)
Length of Visible Light 10h 33m
Length of Day
9h 33m
Waning Crescent, 14% of the Moon is Illuminated
Jan 8
Waning Crescent
Jan 11
New
Jan 18
First Quarter
Jan 26
Full
Feb 3
Last Quarter

Hourly Weather History & Observations

Time (EST) Temp. Windchill Dew Point Humidity Pressure Visibility Wind Dir Wind Speed Gust Speed Precip Events Conditions
12:54 AM 21.9 °F - 18.0 °F 85% 30.43 in 7.0 mi Calm Calm - N/A   Clear
1:54 AM 21.9 °F - 19.0 °F 89% 30.42 in 7.0 mi Calm Calm - N/A   Clear
2:54 AM 21.9 °F - 19.0 °F 89% 30.41 in 6.0 mi Calm Calm - N/A   Clear
3:54 AM 21.9 °F - 19.9 °F 92% 30.40 in 6.0 mi Calm Calm - N/A   Clear
4:54 AM 21.0 °F - 19.0 °F 92% 30.40 in 6.0 mi Calm Calm - N/A   Clear
5:54 AM 21.0 °F - 18.0 °F 88% 30.42 in 7.0 mi Calm Calm - N/A   Clear
6:54 AM 21.9 °F - 19.0 °F 89% 30.43 in 8.0 mi Calm Calm - N/A   Clear
7:54 AM 24.1 °F - 21.0 °F 88% 30.44 in 6.0 mi Calm Calm - N/A   Clear
9:54 AM 44.1 °F 41.5 °F 30.9 °F 60% 30.44 in 10.0 mi Variable 4.6 mph - N/A   Clear
10:54 AM 46.9 °F - 28.9 °F 50% 30.43 in 10.0 mi WSW 10.4 mph 19.6 mph N/A   Clear
11:54 AM 48.9 °F - 30.0 °F 48% 30.40 in 10.0 mi WSW 11.5 mph 20.7 mph N/A   Clear
12:54 PM 48.9 °F - 30.9 °F 50% 30.39 in 10.0 mi WSW 9.2 mph 16.1 mph N/A   Clear
1:54 PM 51.1 °F - 30.9 °F 46% 30.38 in 10.0 mi WSW 9.2 mph - N/A   Clear
2:54 PM 50.0 °F - 30.9 °F 48% 30.39 in 10.0 mi WSW 8.1 mph - N/A   Clear
3:54 PM 50.0 °F - 30.9 °F 48% 30.40 in 10.0 mi WSW 11.5 mph - N/A   Clear
4:54 PM 46.9 °F - 30.9 °F 54% 30.40 in 10.0 mi WSW 3.5 mph - N/A   Clear
5:54 PM 36.0 °F - 28.9 °F 76% 30.40 in 10.0 mi Calm Calm - N/A   Scattered Clouds
6:54 PM 39.9 °F - 32.0 °F 73% 30.40 in 10.0 mi Calm Calm - N/A   Overcast
7:54 PM 39.9 °F - 33.1 °F 77% 30.41 in 10.0 mi Calm Calm - N/A   Overcast
8:54 PM 39.0 °F - 33.1 °F 79% 30.38 in 10.0 mi Calm Calm - N/A   Mostly Cloudy
9:54 PM 39.0 °F - 34.0 °F 82% 30.40 in 10.0 mi Calm Calm - N/A   Overcast
10:54 PM 39.9 °F - 33.1 °F 77% 30.41 in 10.0 mi Calm Calm - N/A   Overcast
11:54 PM 39.9 °F - 34.0 °F 79% 30.39 in 10.0 mi Calm Calm - N/A   Overcast